FW5428 Weather Reports


Display with metric or nautical units.
time (UTC)temp
F
wind
direction
speed
MPH
gust
MPH
rain 1hr
in
rain 24hr
in
rain mn
in
humidity
%
barometer
mb
20260509131122 49 270 22.0 32.0 0.00 0.01 0.01 86 1015.7
20260509130611 49 270 22.0 30.0 0.00 0.01 0.01 86 1015.7
20260509130101 49 270 19.0 29.0 0.00 0.01 0.01 86 1015.7
20260509125551 49 270 21.0 30.0 0.00 0.01 0.01 86 1015.7
20260509125041 49 270 21.0 30.0 0.00 0.01 0.01 86 1015.6
20260509124538 49 270 15.0 28.0 0.00 0.01 0.01 87 1015.5
20260509124021 48 225 17.0 34.0 0.00 0.01 0.01 87 1015.6
20260509123510 48 270 15.0 34.0 0.00 0.01 0.01 87 1015.5
20260509123001 48 270 18.0 32.0 0.01 0.01 0.01 87 1015.2
20260509122450 48 225 15.0 28.0 0.01 0.01 0.01 87 1015.1
20260509121940 48 270 13.0 30.0 0.01 0.01 0.01 87 1015.1
20260509121430 48 270 15.0 30.0 0.01 0.01 0.01 87 1015.1
20260509120921 48 270 21.0 29.0 0.01 0.01 0.01 87 1015.0
20260509120410 48 270 19.0 28.0 0.01 0.01 0.01 88 1015.1
20260509115912 48 270 15.0 27.0 0.01 0.01 0.01 88 1014.9
20260509115350 48 270 17.0 27.0 0.01 0.01 0.01 89 1014.7
20260509114329 48 270 21.0 30.0 0.01 0.01 0.01 89 1014.7
20260509113819 48 270 14.0 28.0 0.01 0.01 0.01 89 1014.5
20260509113310 47 270 13.0 29.0 0.01 0.01 0.01 89 1014.5
20260509112759 47 270 14.0 30.0 0.00 0.00 0.00 90 1014.5
20260509112250 47 270 12.0 31.0 0.00 0.00 0.00 90 1014.3
20260509111228 47 270 11.0 25.0 0.00 0.00 0.00 90 1014.3
20260509110208 47 270 13.0 32.0 0.00 0.00 0.00 91 1014.1
20260509105658 46 270 12.0 27.0 0.00 0.00 0.00 91 1013.9
20260509105148 46 270 15.0 27.0 0.00 0.00 0.00 91 1013.7
20260509104129 46 270 11.0 26.0 0.00 0.00 0.00 91 1013.4
20260509103618 45 270 12.0 26.0 0.00 0.00 0.00 91 1013.4
20260509102558 45 270 10.0 22.0 0.00 0.00 0.00 90 1013.2
20260509102048 45 270 9.0 21.0 0.00 0.00 0.00 90 1013.2
20260509101542 44 270 9.0 22.0 0.00 0.00 0.00 90 1013.4
20260509101031 44 270 9.0 22.0 0.00 0.00 0.00 90 1013.2
20260509100522 44 270 11.0 22.0 0.00 0.00 0.00 90 1013.0
20260509100013 44 270 10.0 21.0 0.00 0.00 0.00 90 1013.2
20260509094952 44 225 10.0 24.0 0.00 0.00 0.00 89 1012.9
20260509094438 44 270 5.0 21.0 0.00 0.00 0.00 88 1012.6
20260509092911 44 270 8.0 21.0 0.00 0.00 0.00 85 1012.6
20260509092401 44 270 9.0 25.0 0.00 0.00 0.00 84 1012.5
20260509091851 44 270 7.0 25.0 0.00 0.00 0.00 84 1012.6
20260509091340 44 0 10.0 24.0 0.00 0.00 0.00 84 1012.7
20260509090834 44 0 6.0 17.0 0.00 0.00 0.00 84 1012.4
20260509090320 44 270 8.0 23.0 0.00 0.00 0.00 83 1012.3
20260509085810 44 315 14.0 23.0 0.00 0.00 0.00 83 1012.3
20260509085300 44 270 13.0 22.0 0.00 0.00 0.00 83 1012.6
20260509084749 43 0 7.0 21.0 0.00 0.00 0.00 81 1012.5
20260509084240 43 270 10.0 21.0 0.00 0.00 0.00 81 1012.3
20260509083730 43 270 11.0 21.0 0.00 0.00 0.00 81 1012.4
20260509083220 43 270 8.0 19.0 0.00 0.00 0.00 81 1012.1
20260509082710 42 270 10.0 19.0 0.00 0.00 0.00 82 1012.1
20260509081649 42 270 8.0 19.0 0.00 0.00 0.00 82 1012.1
20260509081139 42 0 8.0 19.0 0.00 0.00 0.00 82 1012.2
20260509080629 42 270 8.0 18.0 0.00 0.00 0.00 82 1012.0
20260509080119 42 270 9.0 17.0 0.00 0.00 0.00 81 1011.8
20260509075608 42 270 5.0 17.0 0.00 0.00 0.00 81 1011.8
20260509075059 42 270 10.0 16.0 0.00 0.00 0.00 81 1011.9
20260509073018 42 270 8.0 18.0 0.00 0.00 0.00 81 1011.8
20260509072508 42 270 8.0 17.0 0.00 0.00 0.00 80 1011.9
20260509071958 42 270 4.0 17.0 0.00 0.00 0.00 80 1011.7
20260509071448 42 270 10.0 17.0 0.00 0.00 0.00 80 1011.8
20260509065917 42 270 10.0 17.0 0.00 0.00 0.00 79 1012.1
20260509065407 42 270 11.0 17.0 0.00 0.00 0.00 79 1012.0
20260509064857 42 270 9.0 18.0 0.00 0.00 0.00 78 1012.0
20260509064347 42 0 8.0 18.0 0.00 0.00 0.00 78 1011.9
20260509063837 42 270 8.0 17.0 0.00 0.00 0.00 77 1011.9
20260509063327 42 270 8.0 19.0 0.00 0.00 0.00 77 1011.8
20260509062306 43 270 9.0 19.0 0.00 0.00 0.00 75 1011.7
20260509061757 43 270 6.0 20.0 0.00 0.00 0.00 75 1011.5
20260509061247 43 270 7.0 20.0 0.00 0.00 0.00 74 1011.2
20260509060736 43 270 8.0 0.0 0.00 0.00 0.00 74 1011.4
20260509060147 43 270 9.0 0.0 0.00 0.00 0.00 73 1011.5
20260509055925 43 270 13.0 24.0 0.00 0.00 0.00 72 1011.4
20260509054905 43 270 13.0 22.0 0.00 0.00 0.00 71 1011.7
20260509054355 43 0 4.0 20.0 0.00 0.00 0.00 70 1011.7
20260509053845 43 270 9.0 17.0 0.00 0.00 0.00 69 1011.4
20260509053336 43 315 9.0 17.0 0.00 0.00 0.00 68 1011.4
20260509052824 43 315 6.0 21.0 0.00 0.00 0.00 67 1011.1
20260509052314 43 315 12.0 21.0 0.00 0.00 0.00 67 1011.1
20260509051804 43 270 7.0 21.0 0.00 0.00 0.00 67 1011.0
20260509050744 42 270 11.0 18.0 0.00 0.00 0.00 67 1010.9
20260509050235 42 270 9.0 18.0 0.00 0.00 0.00 67 1010.8
20260509045723 42 315 7.0 14.0 0.00 0.00 0.00 68 1010.6
20260509045214 42 270 4.0 14.0 0.00 0.00 0.00 68 1010.6
20260509044704 41 0 5.0 14.0 0.00 0.00 0.00 69 1010.4
20260509043643 41 315 5.0 14.0 0.00 0.00 0.00 74 1010.5
20260509043133 41 0 7.0 15.0 0.00 0.00 0.00 74 1010.3
20260509042624 41 315 8.0 15.0 0.00 0.00 0.00 73 1010.2
20260509042114 41 270 7.0 13.0 0.00 0.00 0.00 72 1010.3
20260509041605 41 315 5.0 12.0 0.00 0.00 0.00 73 1010.5
20260509041053 41 0 4.0 12.0 0.00 0.00 0.00 74 1010.3
20260509040029 41 315 8.0 11.0 0.00 0.00 0.00 73 1010.5
20260509035522 41 270 6.0 15.0 0.00 0.00 0.00 73 1010.4
20260509035012 42 0 5.0 15.0 0.00 0.00 0.00 73 1010.5
20260509034502 42 315 7.0 14.0 0.00 0.00 0.00 74 1010.4
20260509033952 42 0 8.0 15.0 0.00 0.00 0.00 73 1010.5
20260509033442 42 0 6.0 15.0 0.00 0.00 0.00 73 1010.2
20260509032932 42 315 9.0 14.0 0.00 0.00 0.00 73 1010.3
20260509032422 42 315 6.0 13.0 0.00 0.00 0.00 73 1009.9
20260509031911 42 0 8.0 13.0 0.00 0.00 0.00 73 1010.1
20260509031401 42 315 7.0 15.0 0.00 0.00 0.00 73 1010.2
20260509030852 42 315 8.0 15.0 0.00 0.00 0.00 74 1010.3
20260509030341 42 0 10.0 15.0 0.00 0.00 0.00 73 1010.1
20260509025321 42 0 8.0 13.0 0.00 0.00 0.00 72 1009.9
20260509024301 43 0 5.0 11.0 0.00 0.00 0.00 72 1010.0
20260509023240 43 0 7.0 12.0 0.00 0.00 0.00 71 1009.9
20260509022731 43 315 4.0 11.0 0.00 0.00 0.00 70 1009.6
20260509022233 44 0 4.0 12.0 0.00 0.00 0.00 70 1009.9
20260509021710 44 315 5.0 12.0 0.00 0.00 0.00 69 1009.6
20260509021200 44 270 4.0 9.0 0.00 0.00 0.00 69 1009.6
20260509020651 44 0 4.0 10.0 0.00 0.00 0.00 68 1009.5
20260509015629 44 0 7.0 11.0 0.00 0.00 0.00 68 1009.5
20260509015119 44 0 4.0 10.0 0.00 0.00 0.00 67 1009.5
20260509014610 45 315 5.0 10.0 0.00 0.00 0.00 67 1009.5
20260509013549 45 315 4.0 11.0 0.00 0.00 0.00 67 1009.3
20260509013040 45 225 6.0 11.0 0.00 0.00 0.00 67 1009.4
20260509012529 45 315 6.0 11.0 0.00 0.00 0.00 67 1009.2
20260509012019 45 270 4.0 11.0 0.00 0.00 0.00 66 1009.4
20260509011510 45 315 6.0 11.0 0.00 0.00 0.00 67 1009.2
20260509010959 45 270 4.0 11.0 0.00 0.00 0.00 68 1009.4
20260509010449 45 315 6.0 11.0 0.00 0.00 0.00 68 1009.4
20260509005938 45 315 4.0 12.0 0.00 0.00 0.00 67 1009.3
20260509005428 46 270 4.0 14.0 0.00 0.00 0.00 67 1009.2
20260509004918 46 315 8.0 14.0 0.00 0.00 0.00 66 1009.2
20260509004408 46 180 6.0 13.0 0.00 0.00 0.00 66 1008.9
20260509003348 47 0 7.0 12.0 0.00 0.00 0.00 63 1008.8
20260509002328 47 270 5.0 11.0 0.00 0.00 0.00 64 1008.7
20260509001818 47 270 5.0 12.0 0.00 0.00 0.00 63 1008.8
20260509001308 47 0 4.0 12.0 0.00 0.00 0.00 62 1008.7
20260509000758 47 315 5.0 12.0 0.00 0.00 0.00 63 1008.4
20260508235737 47 315 4.0 9.0 0.00 0.00 0.00 66 1008.3
20260508235227 47 0 3.0 10.0 0.00 0.00 0.00 65 1008.4
20260508234717 47 315 4.0 11.0 0.00 0.00 0.00 64 1008.1
20260508234207 48 315 7.0 11.0 0.00 0.00 0.00 63 1007.9
20260508233656 48 315 4.0 10.0 0.00 0.00 0.00 63 1008.0
20260508233156 48 315 4.0 13.0 0.00 0.00 0.00 63 1008.1
20260508232637 48 0 6.0 13.0 0.00 0.00 0.00 62 1008.0
20260508232127 48 270 6.0 11.0 0.00 0.00 0.00 62 1007.9
20260508231106 48 270 6.0 11.0 0.00 0.00 0.00 62 1007.9
20260508230046 49 270 4.0 10.0 0.00 0.00 0.00 63 1007.8
20260508225535 49 0 4.0 11.0 0.00 0.00 0.00 63 1007.5
20260508225026 49 315 5.0 11.0 0.00 0.00 0.00 63 1007.4
20260508224515 49 270 5.0 11.0 0.00 0.00 0.00 63 1007.4
20260508224005 49 315 4.0 11.0 0.00 0.00 0.00 63 1007.2
20260508223455 49 315 4.0 11.0 0.00 0.00 0.00 63 1006.9
20260508222436 49 0 2.0 11.0 0.00 0.00 0.00 64 1007.0
20260508221925 49 225 7.0 11.0 0.00 0.00 0.00 63 1007.1
20260508220906 49 270 6.0 12.0 0.00 0.00 0.00 64 1006.9
20260508220355 50 0 5.0 12.0 0.00 0.00 0.00 63 1006.7
20260508214824 51 270 4.0 15.0 0.00 0.00 0.00 61 1006.2
20260508214314 51 270 3.0 15.0 0.00 0.00 0.00 62 1006.3
20260508213254 51 270 5.0 11.0 0.00 0.00 0.00 61 1006.2
20260508212744 51 270 7.0 11.0 0.00 0.00 0.00 61 1006.1
20260508212234 52 270 3.0 13.0 0.00 0.00 0.00 61 1006.1
20260508211724 52 270 4.0 14.0 0.00 0.00 0.00 61 1006.0
20260508211214 53 270 8.0 14.0 0.00 0.00 0.00 59 1006.1
20260508210703 53 315 6.0 13.0 0.00 0.00 0.00 58 1005.7
20260508204622 55 270 11.0 23.0 0.00 0.00 0.00 54 1005.8
20260508204116 55 270 7.0 25.0 0.00 0.00 0.00 53 1006.0
20260508203603 55 270 9.0 25.0 0.00 0.00 0.00 53 1005.7
20260508203052 55 270 11.0 21.0 0.00 0.00 0.00 53 1005.7
20260508202032 55 270 11.0 27.0 0.00 0.00 0.00 53 1005.7
20260508201524 55 270 11.0 28.0 0.00 0.00 0.00 53 1005.5
20260508201012 55 270 20.0 28.0 0.00 0.00 0.00 50 1005.6
20260508200503 56 270 11.0 26.0 0.00 0.00 0.00 52 1005.7
20260508195952 56 270 12.0 26.0 0.00 0.00 0.00 53 1005.6
20260508195442 56 270 9.0 24.0 0.00 0.00 0.00 54 1005.7
20260508194932 56 270 11.0 28.0 0.00 0.00 0.00 54 1005.5
20260508194421 56 270 16.0 28.0 0.00 0.00 0.00 53 1005.4
20260508193911 56 270 11.0 27.0 0.00 0.00 0.00 53 1005.4
20260508193401 56 270 11.0 34.0 0.00 0.00 0.00 55 1005.5
20260508192852 56 270 20.0 34.0 0.00 0.00 0.00 53 1005.5
20260508192342 56 270 22.0 34.0 0.00 0.00 0.00 56 1005.4
20260508191831 56 270 14.0 28.0 0.00 0.00 0.00 53 1005.4
20260508191321 56 225 18.0 28.0 0.00 0.00 0.00 54 1005.4
20260508190810 56 225 17.0 28.0 0.00 0.00 0.00 54 1005.4
20260508190300 56 270 13.0 28.0 0.00 0.00 0.00 54 1005.3
20260508185751 56 270 18.0 30.0 0.00 0.00 0.00 54 1005.4
20260508185241 56 270 14.0 34.0 0.00 0.00 0.00 54 1005.4
20260508184730 56 270 14.0 34.0 0.00 0.00 0.00 53 1005.4
20260508184220 56 270 23.0 36.0 0.00 0.00 0.00 52 1005.4
20260508183710 56 270 18.0 36.0 0.00 0.00 0.00 54 1005.2
20260508183201 56 270 17.0 26.0 0.00 0.00 0.00 56 1005.2
20260508182650 56 270 15.0 26.0 0.00 0.00 0.00 54 1005.0
20260508182139 56 270 11.0 31.0 0.00 0.00 0.00 54 1005.2
20260508181630 56 270 20.0 31.0 0.00 0.00 0.00 55 1005.1
20260508181119 56 270 19.0 34.0 0.00 0.00 0.00 54 1004.8
20260508180059 56 270 20.0 34.0 0.00 0.00 0.00 53 1005.0
20260508175549 56 270 19.0 34.0 0.00 0.00 0.00 56 1005.0
20260508175039 56 270 21.0 32.0 0.00 0.00 0.00 56 1004.9
20260508174529 56 270 16.0 34.0 0.00 0.00 0.00 58 1004.9
20260508174018 56 270 18.0 34.0 0.00 0.00 0.00 58 1005.0
20260508172959 56 270 17.0 31.0 0.00 0.00 0.00 58 1004.8
20260508172448 55 270 19.0 38.0 0.00 0.00 0.00 60 1005.1
20260508171939 55 270 19.0 38.0 0.00 0.00 0.00 57 1005.3
20260508171429 55 270 11.0 34.0 0.00 0.00 0.00 60 1005.1
20260508170918 55 270 15.0 31.0 0.00 0.00 0.00 60 1005.0
20260508170408 55 270 15.0 32.0 0.00 0.00 0.00 61 1005.1
20260508165858 54 315 15.0 43.0 0.00 0.00 0.00 60 1005.5
20260508165348 54 315 17.0 43.0 0.00 0.00 0.00 61 1005.3
20260508164838 54 270 15.0 30.0 0.00 0.00 0.00 62 1005.5
20260508164328 54 270 17.0 30.0 0.00 0.00 0.00 63 1005.5
20260508163818 54 270 13.0 31.0 0.00 0.00 0.00 64 1005.6
20260508163308 54 270 20.0 31.0 0.00 0.00 0.00 61 1005.8
20260508162757 54 270 16.0 33.0 0.00 0.00 0.00 62 1005.4
20260508162247 53 0 11.0 33.0 0.00 0.00 0.00 63 1005.6
20260508161737 53 270 23.0 33.0 0.00 0.00 0.00 63 1005.8
20260508161227 53 270 13.0 32.0 0.00 0.00 0.00 65 1005.5
20260508160717 53 270 16.0 28.0 0.00 0.00 0.00 65 1005.8
20260508160207 53 270 20.0 28.0 0.00 0.00 0.00 65 1005.8
20260508155656 53 270 15.0 32.0 0.00 0.00 0.00 64 1005.8
20260508154636 53 270 15.0 29.0 0.00 0.00 0.00 65 1005.7
20260508154127 53 270 17.0 29.0 0.00 0.00 0.00 65 1005.8
20260508153616 53 270 12.0 30.0 0.00 0.00 0.00 65 1006.0
20260508152045 53 270 18.0 30.0 0.00 0.00 0.00 66 1006.2
20260508151536 53 270 13.0 32.0 0.00 0.00 0.00 66 1006.0
20260508151026 53 270 22.0 32.0 0.00 0.00 0.00 65 1005.9
20260508150515 53 270 11.0 30.0 0.00 0.00 0.00 66 1005.7
20260508150006 53 270 16.0 30.0 0.00 0.00 0.00 65 1005.9
20260508145456 53 0 11.0 26.0 0.00 0.00 0.00 67 1005.9
20260508144956 52 270 12.0 28.0 0.00 0.00 0.00 67 1005.8
20260508144435 52 270 15.0 28.0 0.00 0.00 0.00 67 1005.9
20260508143925 52 270 14.0 30.0 0.00 0.00 0.00 67 1005.8
20260508143414 52 270 15.0 30.0 0.00 0.00 0.00 69 1005.8
20260508142905 52 270 17.0 27.0 0.00 0.00 0.00 68 1006.2
20260508142354 51 270 17.0 27.0 0.00 0.00 0.00 67 1005.9
20260508141844 51 270 19.0 27.0 0.00 0.00 0.00 71 1005.9
20260508141334 51 270 17.0 30.0 0.00 0.00 0.00 69 1005.9
20260508135254 50 315 16.0 31.0 0.00 0.00 0.00 68 1006.1
20260508134743 50 270 21.0 30.0 0.00 0.00 0.00 69 1006.0
20260508134234 50 270 16.0 30.0 0.00 0.00 0.00 70 1005.8
20260508133723 50 270 16.0 28.0 0.00 0.00 0.00 71 1006.0
20260508133214 50 270 17.0 29.0 0.00 0.00 0.00 69 1006.0
20260508132153 49 270 18.0 31.0 0.00 0.00 0.00 71 1005.9